Change the Weather History Date:

Saturday, September 28, 2013

  Actual Average Record
Temperature  
Mean Temperature 57 °F 57 °F  
Max Temperature 64 °F 72 °F 88 °F (1999)
Min Temperature 49 °F 43 °F 23 °F (1945)
Degree Days  
Heating Degree Days 8 8  
Month to date heating degree days 112 114  
Since 1 July heating degree days 112 145  
Cooling Degree Days 0 0  
Month to date cooling degree days 128 57  
Year to date cooling degree days 814 663  
Growing Degree Days 6 (Base 50)    
Moisture  
Dew Point 49 °F    
Average Humidity 76    
Maximum Humidity 96    
Minimum Humidity 56    
Precipitation  
Precipitation 0.16 in 0.02 in 0.39 in (1962)
Month to date precipitation 1.34 0.53  
Year to date precipitation 8.76 9.55  
Sea Level Pressure  
Sea Level Pressure 29.60 in    
Wind  
Wind Speed 12 mph (South)    
Max Wind Speed 30 mph    
Max Gust Speed 40 mph    
Visibility 8 miles    
Events Rain    
T = Trace of Precipitation, MM = Missing Value Source: NWS Daily Summary

Daily Weather History Graph

Daily Weather History Graph

Search for Another Location

Airport or City:

Trip Planner

Search our weather history database for the weather conditions in past years. The results will help you decide how hot, cold, wet, or windy it might be!

Date:

Astronomy

Sep. 28, 2013 Rise Set
Actual Time 6:53 AM PDT 6:42 PM PDT
Civil Twilight 6:22 AM PDT 7:13 PM PDT
Nautical Twilight 5:45 AM PDT 7:50 PM PDT
Astronomical Twilight 5:08 AM PDT 8:27 PM PDT
Moon 12:21 AM PDT (9/28) 3:27 PM PDT (9/28)
Length of Visible Light 12h 51m
Length of Day
11h 48m
Waning Crescent, 35% of the Moon is Illuminated
Sep 28
Waning Crescent
Oct 4
New
Oct 11
First Quarter
Oct 18
Full
Oct 26
Last Quarter

Hourly Weather History & Observations

Time (PDT) Temp. Dew Point Humidity Pressure Visibility Wind Dir Wind Speed Gust Speed Precip Events Conditions
12:53 AM 53.1 °F 44.1 °F 71% 29.84 in 10.0 mi South 8.1 mph - N/A   Overcast
1:53 AM 52.0 °F 44.1 °F 74% 29.83 in 10.0 mi South 13.8 mph - N/A   Partly Cloudy
2:19 AM 51.8 °F 44.6 °F 76% 29.82 in 10.0 mi South 12.7 mph - N/A   Mostly Cloudy
2:53 AM 52.0 °F 44.1 °F 74% 29.82 in 10.0 mi South 11.5 mph - N/A   Scattered Clouds
3:25 AM 51.8 °F 44.6 °F 76% 29.80 in 10.0 mi South 9.2 mph - N/A   Mostly Cloudy
3:39 AM 51.8 °F 44.6 °F 76% 29.79 in 10.0 mi South 8.1 mph - N/A   Scattered Clouds
3:53 AM 51.1 °F 44.1 °F 77% 29.79 in 10.0 mi South 9.2 mph - N/A   Partly Cloudy
4:53 AM 52.0 °F 44.1 °F 74% 29.78 in 10.0 mi South 11.5 mph 20.7 mph N/A   Mostly Cloudy
5:53 AM 51.1 °F 44.1 °F 77% 29.78 in 10.0 mi South 9.2 mph - N/A   Overcast
6:53 AM 50.0 °F 45.0 °F 83% 29.75 in 10.0 mi South 8.1 mph - 0.00 in Rain Light Rain
7:53 AM 48.9 °F 46.0 °F 90% 29.74 in 10.0 mi SSW 4.6 mph - 0.02 in Rain Light Rain
8:53 AM 50.0 °F 46.9 °F 89% 29.71 in 10.0 mi South 6.9 mph - 0.02 in Rain Light Rain
9:53 AM 50.0 °F 48.0 °F 93% 29.68 in 10.0 mi South 8.1 mph - 0.00 in Rain Light Rain
10:41 AM 50.0 °F 48.2 °F 94% 29.65 in 8.0 mi SSW 8.1 mph - 0.01 in Rain Light Rain
10:53 AM 51.1 °F 48.9 °F 92% 29.65 in 9.0 mi SSW 9.2 mph - 0.01 in Rain Light Rain
11:40 AM 51.8 °F 50.0 °F 94% 29.62 in 2.0 mi South 9.2 mph - 0.01 in Rain Light Rain
11:53 AM 51.1 °F 50.0 °F 96% 29.62 in 2.0 mi South 6.9 mph - 0.02 in Rain Light Rain
12:05 PM 51.8 °F 51.8 °F 100% 29.60 in 3.0 mi South 6.9 mph - 0.01 in Rain Light Rain
12:11 PM 51.8 °F 51.8 °F 100% 29.60 in 2.5 mi South 5.8 mph - 0.01 in Rain Light Rain
12:40 PM 51.8 °F 51.8 °F 100% 29.58 in 3.0 mi SSW 5.8 mph - 0.02 in Rain Light Rain
12:53 PM 52.0 °F 51.1 °F 97% 29.58 in 6.0 mi South 6.9 mph - 0.02 in   Overcast
1:08 PM 51.8 °F 51.8 °F 100% 29.56 in 5.0 mi South 6.9 mph - N/A   Overcast
1:22 PM 53.6 °F 51.8 °F 94% 29.55 in 7.0 mi South 8.1 mph - N/A   Overcast
1:53 PM 53.1 °F 52.0 °F 96% 29.53 in 10.0 mi SSW 5.8 mph - N/A   Overcast
2:53 PM 55.0 °F 53.1 °F 93% 29.51 in 10.0 mi South 9.2 mph - 0.00 in Rain Light Rain
3:11 PM 55.4 °F 53.6 °F 94% 29.51 in 10.0 mi SSW 6.9 mph - 0.00 in Rain Light Rain
3:53 PM 57.0 °F 54.0 °F 89% 29.47 in 10.0 mi South 8.1 mph - 0.00 in   Overcast
4:36 PM 59.0 °F 53.6 °F 82% 29.44 in 10.0 mi South 12.7 mph - N/A   Overcast
4:53 PM 59.0 °F 53.1 °F 81% 29.43 in 10.0 mi South 15.0 mph 26.5 mph N/A   Overcast
5:53 PM 62.1 °F 52.0 °F 70% 29.39 in 10.0 mi South 15.0 mph 24.2 mph 0.01 in Rain Light Rain
6:53 PM 63.0 °F 50.0 °F 63% 29.34 in 10.0 mi SSE 25.3 mph 36.8 mph 0.00 in   Overcast
7:53 PM 64.0 °F 48.9 °F 58% 29.31 in 10.0 mi SSE 25.3 mph 38.0 mph N/A   Overcast
8:53 PM 60.1 °F 51.1 °F 72% 29.34 in 10.0 mi South 19.6 mph 27.6 mph 0.01 in Rain Light Rain
9:53 PM 57.0 °F 52.0 °F 83% 29.37 in 10.0 mi South 8.1 mph 17.3 mph 0.01 in Rain Light Rain
10:53 PM 53.1 °F 46.0 °F 77% 29.34 in 10.0 mi SSE 15.0 mph - 0.04 in Rain Light Rain
11:53 PM 55.0 °F 45.0 °F 69% 29.37 in 10.0 mi South 13.8 mph - 0.00 in   Clear